Dewpoint
23 22 21 20 19 17 20 20 20 19 12 12 11 10 7 5 7 6 5 6 9 9 9 11 14 31 49 49 52 53 54 55 57 57 57 58 58 58 58 59 59 60 60 61 62 62 63 63 62 63 63 63 63 63 64 64 64 64 64 64 64 65 65 65 65 65 64 63 63 63 63 62 62 63 64 64 65 65 66 66 66 65 65 64 64 64
23 22 22 21 19 17 19 21 19 18 18 11 10 9 8 6 5 6 4 4 9 13 10 12 26 41 48 50 51 53 54 55 56 57 57 57 58 58 58 58 59 60 61 62 62 62 63 63 63 63 63 63 62 63 63 63 64 64 64 64 64 65 65 65 65 65 64 64 64 63 62 63 63 64 64 64 65 65 65 65 64 63 62 62 62 62
21 21 22 22 23 23 22 21 18 18 17 13 12 11 8 7 7 7 8 9 9 9 14 14 25 39 47 50 51 52 52 54 57 57 58 57 57 57 57 58 58 59 60 61 61 62 63 63 63 63 63 62 62 62 63 63 64 64 64 64 64 64 64 64 65 65 64 63 63 63 62 63 63 64 64 64 65 64 63 62 62 61 61 60 60 60
20 21 22 22 24 23 21 19 17 16 16 15 12 12 11 9 6 6 8 8 8 10 11 25 28 46 48 50 51 51 52 53 55 56 57 58 57 57 57 58 58 59 59 60 61 61 62 63 63 63 62 62 63 63 63 64 64 64 64 64 64 64 64 64 65 65 64 64 64 64 64 63 64 64 65 64 63 62 60 59 59 59 59 59 59 58
19 21 22 23 23 21 20 17 16 17 16 19 11 12 9 9 6 7 7 9 7 30 31 42 44 43 47 48 49 50 53 53 53 56 57 57 57 57 58 58 59 59 60 60 61 61 62 62 62 62 62 63 63 63 64 64 64 64 64 65 64 64 64 64 65 64 64 64 64 64 64 64 64 64 63 62 61 60 59 58 57 57 57 57 57 57
18 19 22 22 22 21 17 15 16 17 16 15 14 10 10 9 9 9 8 6 7 8 37 31 28 35 45 45 48 47 51 52 53 54 55 56 56 57 57 57 59 60 60 60 61 61 62 62 62 62 62 63 63 63 64 65 65 65 65 64 64 64 64 64 64 64 64 64 63 63 62 62 62 61 60 60 58 58 57 57 57 57 57 57 56 56
19 19 21 21 22 22 17 15 15 15 16 15 13 11 11 11 10 9 7 5 5 5 8 29 11 30 45 45 46 46 51 52 53 54 55 55 56 56 57 58 58 59 60 61 61 62 62 62 62 62 62 62 63 64 64 65 65 65 64 64 64 64 64 64 64 64 64 63 63 63 63 63 62 61 61 60 59 57 57 57 56 56 56 56 56 56
18 18 20 21 21 21 20 16 12 14 13 12 12 11 11 10 9 8 5 6 11 13 14 28 28 36 39 43 46 47 51 52 52 53 54 55 56 56 57 58 59 59 60 60 61 61 62 62 62 61 62 62 63 64 65 64 64 64 64 64 63 63 64 64 64 63 63 62 62 62 62 63 62 61 60 59 58 57 57 56 56 56 55 55 55 55
19 17 18 20 20 20 20 19 11 13 12 10 12 12 11 11 10 7 7 10 12 10 6 24 39 31 34 39 46 49 50 51 51 52 53 54 55 56 57 58 58 60 60 60 61 61 61 61 62 61 62 63 64 64 64 64 64 64 64 63 63 63 64 64 63 63 62 62 62 62 62 62 62 60 59 59 58 57 56 55 55 54 54 54 54 54
17 17 18 21 20 19 17 14 9 10 10 9 11 12 12 11 11 8 10 7 12 7 8 20 31 26 32 37 43 47 49 50 51 52 53 54 55 56 57 58 59 60 60 61 61 61 61 62 62 62 62 63 64 64 64 64 64 64 63 63 63 63 64 64 63 62 62 62 62 62 62 62 61 60 59 58 56 56 55 54 54 54 53 53 53 53
16 24 21 18 19 19 14 12 9 8 9 9 9 8 6 7 9 17 13 8 10 7 8 12 33 27 25 36 43 44 47 50 51 52 53 54 55 56 57 58 59 60 60 60 61 61 61 62 62 62 62 63 64 64 64 63 64 64 64 63 63 63 64 63 62 62 61 62 62 62 62 61 60 59 58 57 56 55 54 54 53 53 53 53 52 52
15 17 18 15 20 16 14 12 10 9 8 7 7 8 6 11 8 8 11 13 4 7 12 10 29 32 22 29 42 46 48 50 51 51 52 54 54 55 57 58 59 60 60 61 61 61 61 62 62 62 62 63 63 63 63 63 64 64 63 63 62 63 63 63 62 62 61 62 62 63 62 61 59 58 57 56 55 54 53 53 53 53 52 52 51 51
13 15 17 14 25 14 14 10 9 7 8 7 8 8 9 9 5 3 5 5 5 4 9 12 28 32 27 30 41 45 47 49 51 51 52 53 54 56 57 58 60 60 60 61 61 61 61 61 61 61 62 62 62 63 63 63 63 63 63 63 62 62 62 62 62 61 61 62 62 62 61 60 59 58 56 55 54 54 53 52 52 51 51 51 50 50
15 13 16 13 15 17 14 11 8 7 5 6 6 8 7 5 5 4 6 9 11 14 14 16 32 27 29 28 37 44 46 49 50 51 52 54 54 56 57 58 60 60 60 60 61 61 61 61 61 62 62 62 62 63 63 63 63 63 63 63 62 62 62 61 61 61 61 62 62 62 61 60 58 57 56 55 54 53 52 52 52 51 51 50 50 50
12 11 11 13 12 13 13 13 9 9 7 5 6 6 10 9 7 1 7 3 4 8 12 15 25 22 22 25 36 42 46 48 51 52 54 55 56 57 58 59 60 60 60 60 61 61 61 61 61 61 62 62 62 63 63 62 62 62 62 62 62 61 60 60 60 61 61 60 60 60 59 58 57 57 56 55 54 53 52 52 51 51 51 50 50 50
11 15 15 14 15 12 11 12 10 7 7 6 5 7 7 7 18 6 14 10 11 6 8 17 20 20 20 35 46 44 48 52 53 54 55 55 57 58 58 59 60 60 60 60 61 61 61 61 61 62 62 62 62 62 62 62 62 62 62 62 61 60 59 59 59 59 59 58 58 58 57 56 56 56 55 54 54 53 52 52 51 50 50 50 50 50
12 14 13 13 13 12 11 12 10 7 8 8 5 5 5 13 11 13 10 22 14 11 8 15 23 32 34 37 45 48 48 52 53 54 54 55 57 58 58 59 59 60 60 60 60 61 61 61 61 62 62 62 62 62 62 62 62 62 61 60 59 59 59 59 58 57 56 56 56 56 56 55 55 54 53 52 52 52 52 51 51 50 50 50 49 49
12 16 20 13 12 11 12 11 10 7 12 4 5 5 10 15 17 11 6 13 9 8 12 17 22 27 28 26 40 47 49 52 53 53 54 55 57 57 58 58 59 59 60 60 60 61 61 61 61 62 62 62 62 62 62 62 61 60 60 59 58 58 57 57 56 55 55 55 55 55 54 54 54 53 52 52 52 52 51 51 51 50 48 47 47 47
18 10 11 13 12 11 12 10 9 7 8 4 5 10 4 7 3 13 17 7 4 2 3 10 14 23 28 29 43 46 48 51 52 53 54 55 56 57 57 58 59 59 60 60 60 60 61 61 61 61 62 62 62 62 61 60 60 59 58 58 58 57 56 56 55 55 54 54 54 54 54 53 53 53 52 52 52 51 51 50 49 47 46 45 46 46
23 14 13 13 12 10 10 9 10 7 8 12 7 5 10 14 17 8 13 17 12 5 4 9 14 22 28 39 45 46 48 51 52 53 53 55 56 57 57 58 58 59 59 60 60 60 61 61 61 61 61 61 61 61 60 59 58 57 57 57 56 55 55 54 54 54 54 54 53 53 53 53 52 52 52 52 51 50 49 47 45 44 43 44 45 44
17 22 11 12 11 9 8 10 9 8 7 5 6 5 8 13 16 12 19 11 12 10 9 9 5 15 21 37 46 47 48 50 52 52 53 55 56 57 58 58 58 59 59 60 60 60 61 61 61 61 61 61 60 59 58 57 57 56 56 55 54 54 54 54 53 53 53 53 53 53 52 52 52 52 51 51 50 48 46 45 44 43 43 43 43 43
15 18 17 19 8 8 9 10 9 9 7 6 9 11 6 6 9 5 11 15 17 12 8 7 8 18 23 40 47 47 49 51 52 52 53 55 56 57 58 58 59 59 59 60 60 60 61 61 61 61 60 59 58 58 57 56 55 55 54 54 54 54 53 53 53 53 53 53 52 52 52 51 51 51 50 49 48 46 44 43 42 43 42 42 43 43
20 26 22 12 12 8 9 10 13 10 7 6 5 6 7 8 15 11 8 11 12 17 17 17 11 14 29 36 46 48 50 51 52 53 53 55 56 57 58 58 59 59 59 60 60 60 60 61 60 59 58 58 57 56 56 55 55 54 53 53 53 53 52 52 52 52 52 52 51 51 51 50 50 49 49 47 44 42 42 42 41 42 41 42 42 43
26 16 13 12 12 13 12 12 13 10 5 4 6 11 8 8 15 15 18 20 15 14 8 7 4 17 30 39 42 47 49 50 50 52 53 55 56 58 58 58 59 59 59 60 60 60 60 60 60 58 57 57 56 55 55 55 54 53 53 53 52 52 51 51 51 51 51 50 50 50 49 49 49 48 46 44 42 41 41 41 41 42 41 41 41 41
16 22 17 14 10 11 13 9 9 9 9 16 13 14 8 12 12 23 23 21 10 16 19 11 4 11 30 43 44 46 49 50 51 52 54 55 56 58 58 58 59 59 59 59 60 60 59 59 58 57 56 56 55 54 54 54 53 53 52 52 52 51 51 51 50 50 50 50 49 49 49 48 48 46 44 42 41 40 40 40 41 41 40 41 41 41
20 25 19 14 11 9 9 9 10 8 9 15 18 9 11 11 14 15 8 13 8 14 18 13 11 20 31 42 45 48 49 50 51 52 54 56 57 58 58 58 58 59 59 59 59 59 58 58 58 57 56 55 54 54 53 53 53 52 52 51 51 51 50 50 50 50 50 49 49 48 48 47 46 44 42 41 41 40 40 40 40 40 41 40 40 40
23 31 24 20 14 15 16 19 20 19 11 7 9 9 9 13 19 21 21 13 11 16 14 21 27 34 38 40 45 47 49 50 51 53 54 55 57 58 58 58 58 58 58 59 58 58 58 57 57 56 55 54 54 53 53 52 52 51 51 51 51 50 49 49 49 49 49 49 48 48 47 47 45 43 42 42 41 40 40 40 40 40 40 41 40 40
27 19 23 23 18 15 15 11 15 10 9 12 10 12 13 16 20 18 15 12 21 14 7 23 33 35 37 40 44 46 48 49 51 53 54 55 57 57 58 57 56 58 58 58 58 57 57 56 56 55 54 53 53 52 52 52 51 51 50 50 50 49 49 49 49 49 49 48 48 47 47 46 45 43 42 41 41 40 40 40 40 40 40 40 39 39
23 17 22 25 22 20 16 9 10 7 9 12 13 17 17 20 18 16 18 25 20 8 17 25 35 35 38 41 44 47 49 50 51 52 54 56 57 57 57 57 57 58 58 57 57 57 57 56 55 54 53 53 52 52 52 51 51 50 50 49 49 49 48 49 48 48 48 48 47 47 46 45 44 43 42 41 41 40 40 39 39 39 39 39 39 40
24 20 25 28 24 25 23 11 12 9 16 12 14 19 20 20 19 22 22 28 21 19 26 34 36 36 39 42 44 46 47 49 51 52 54 55 56 57 57 57 57 57 57 57 57 57 56 55 54 54 53 52 52 51 51 50 50 49 49 49 49 48 48 48 48 48 47 47 46 46 45 44 44 42 41 41 40 40 39 39 39 39 39 38 38 38
22 18 30 29 21 23 26 20 14 13 11 14 16 20 21 24 22 25 27 29 35 36 35 36 37 37 42 45 48 49 50 52 52 53 53 55 56 56 57 56 57 57 57 57 56 56 56 55 54 53 52 52 51 51 50 50 49 49 49 48 48 48 48 48 48 47 47 46 46 45 44 43 42 42 41 40 39 39 39 38 38 37 37 37 37 37
29 18 31 28 22 16 24 26 23 22 16 17 18 22 20 18 17 20 22 30 31 35 37 37 36 37 42 48 49 49 50 51 51 52 53 55 56 56 56 56 56 57 56 56 56 56 55 54 53 52 52 51 51 51 50 49 49 48 48 48 47 47 48 47 47 47 46 45 45 44 43 42 42 41 40 39 38 38 37 37 37 36 36 36 36 37
27 24 21 22 20 15 25 28 19 19 15 10 11 17 24 23 24 25 25 34 34 39 35 33 37 40 47 48 49 47 48 49 50 52 53 55 56 56 56 56 56 56 56 56 56 55 54 54 53 52 52 51 51 50 49 49 48 48 48 47 47 47 47 47 47 46 45 44 43 43 42 42 41 40 39 39 38 37 36 36 36 36 35 35 36 35
32 29 22 27 23 15 24 24 22 16 6 10 23 30 29 21 22 20 19 24 34 37 36 36 37 47 49 48 48 47 48 49 51 52 55 55 56 56 56 56 56 56 56 56 55 55 54 54 53 53 52 51 51 50 49 49 49 49 48 47 47 47 47 46 46 45 44 43 43 42 42 42 41 40 39 39 37 36 35 35 35 35 36 36 36 34
27 29 22 26 25 17 21 21 16 7 12 25 32 36 35 34 28 28 30 31 33 37 41 45 48 49 51 50 49 49 50 49 51 51 52 55 56 56 56 56 56 56 56 55 55 54 54 53 53 52 51 51 50 49 49 49 49 49 47 47 46 46 47 46 45 44 43 43 43 43 43 43 41 40 40 39 38 36 36 36 37 37 36 35 34 34
22 22 23 26 23 21 21 17 9 9 25 31 33 36 39 33 31 28 26 31 33 35 37 42 48 50 50 49 49 50 50 51 51 51 52 54 56 56 56 56 56 56 55 55 54 54 53 53 52 51 51 50 49 49 49 48 48 48 47 46 46 47 46 45 44 43 43 42 42 43 43 42 42 41 40 40 38 38 37 37 36 35 35 35 34 34
31 29 26 17 23 18 15 17 13 24 23 26 26 27 25 24 25 24 20 26 34 36 37 40 46 48 50 50 52 53 53 52 49 50 53 54 55 56 56 56 56 56 56 55 55 54 54 53 52 51 50 49 49 48 48 48 48 47 46 46 46 45 45 44 43 43 43 43 43 43 43 44 43 42 40 40 39 38 38 36 36 36 36 34 33 33
27 20 20 26 17 25 19 17 16 15 10 22 29 32 37 36 33 32 27 24 32 34 38 44 47 48 49 52 53 53 53 51 48 50 53 54 55 55 55 55 55 55 55 54 54 54 53 52 51 50 49 48 48 48 49 48 47 46 46 46 45 45 44 43 43 43 43 43 43 43 43 42 43 42 41 40 39 38 37 37 36 36 36 33 33 33
27 28 26 23 19 24 20 17 13 11 13 24 25 30 34 37 37 33 25 20 28 33 39 46 48 49 50 52 53 53 51 47 48 50 54 54 54 56 55 56 55 55 55 54 53 53 52 51 50 49 49 49 48 48 47 47 46 46 45 45 44 44 44 43 43 43 43 43 43 43 44 43 42 42 41 40 39 39 38 37 36 37 36 35 34 34
24 24 25 22 20 19 17 18 13 15 22 29 33 35 36 38 34 22 13 17 31 36 40 45 48 49 49 52 53 52 49 44 47 49 54 55 54 55 55 54 54 54 54 53 53 52 51 50 49 48 47 47 48 47 47 46 46 46 45 45 44 44 43 43 45 44 44 43 43 44 44 44 43 42 42 41 40 39 38 39 38 37 36 35 35 35
21 23 26 19 18 21 20 13 15 19 28 33 35 37 36 37 27 19 14 26 32 37 41 44 48 49 51 52 53 50 50 46 46 50 54 54 54 54 54 54 54 53 53 52 52 49 50 49 48 47 47 47 47 47 47 46 45 45 45 44 44 43 44 45 44 43 43 43 43 43 43 44 44 43 42 41 40 40 40 39 37 37 36 36 36 35
20 23 23 21 20 14 14 18 15 19 26 33 40 39 38 25 15 15 27 33 38 40 42 43 48 49 51 53 53 51 48 45 48 52 54 54 54 53 53 53 52 52 52 52 50 50 50 49 48 48 47 47 46 46 47 45 45 45 44 44 43 43 44 44 44 43 43 42 42 42 43 43 43 43 42 41 40 39 38 38 38 37 36 36 35 35
21 21 17 15 18 18 17 14 14 19 25 38 40 29 33 26 27 30 35 41 42 43 43 44 48 49 51 52 52 44 45 47 48 51 54 54 52 52 52 52 52 52 51 50 50 50 50 49 48 47 46 46 46 46 47 45 45 44 44 44 43 43 44 44 44 43 42 41 41 42 42 41 41 41 41 41 40 39 37 37 37 37 36 35 35 34
27 21 20 20 23 15 14 13 14 24 34 39 34 27 34 33 34 35 42 40 42 43 44 43 45 49 51 52 52 48 46 46 47 50 52 52 51 51 51 51 51 51 51 51 50 50 49 49 48 47 46 46 46 46 48 47 45 44 43 43 43 43 43 43 43 42 41 41 41 41 41 40 40 40 40 40 39 38 37 37 36 36 35 34 34 34
25 24 26 20 26 18 17 22 27 32 36 40 39 39 39 43 42 41 42 42 42 44 44 43 45 46 50 51 51 48 45 46 48 51 52 52 51 51 51 51 51 51 50 50 50 49 49 48 48 47 46 46 45 45 46 45 44 43 43 44 44 43 43 42 41 40 40 40 40 40 40 40 40 40 40 39 39 37 37 36 36 34 34 34 34 34
33 33 33 34 33 35 35 36 38 38 40 41 41 43 42 42 43 43 43 42 42 44 44 45 45 46 47 49 50 47 47 46 48 50 50 50 51 50 50 50 50 50 50 50 50 49 49 48 47 46 45 45 46 47 47 46 44 43 45 44 44 42 41 40 40 40 39 39 39 39 39 39 39 39 39 39 38 37 36 35 35 34 35 35 35 35
35 35 29 28 31 32 29 34 37 38 40 40 41 42 42 42 42 43 43 42 43 44 45 46 46 44 46 48 50 50 48 48 50 50 49 50 50 50 50 50 50 50 50 49 49 48 48 47 46 45 45 45 46 46 48 47 46 44 44 43 42 42 41 40 39 39 39 39 39 39 39 38 38 38 39 39 38 37 36 36 35 35 36 36 36 35
30 36 32 32 30 27 27 32 37 39 40 41 40 41 41 43 43 44 44 44 44 45 45 46 46 46 44 46 49 50 48 48 50 50 50 50 50 50 50 50 49 49 49 50 49 48 48 47 46 45 44 45 45 46 46 46 44 42 42 43 42 40 40 40 39 39 38 38 38 39 38 38 37 38 38 38 38 37 37 37 37 36 36 36 36 36
35 37 29 33 33 34 35 36 38 37 38 38 39 41 42 43 43 42 43 44 43 43 45 45 44 45 45 45 45 46 46 48 50 50 50 50 50 50 50 50 49 49 49 49 48 48 47 46 45 45 44 44 44 44 44 44 43 41 40 40 40 40 40 40 38 38 38 38 38 38 38 38 38 38 38 38 38 38 37 37 37 37 36 35 37 37
34 32 36 31 30 29 31 34 37 31 28 36 37 40 42 43 44 43 43 43 42 42 44 46 45 44 44 46 45 47 48 48 47 48 50 50 50 49 49 49 49 49 49 49 48 47 47 46 45 44 44 44 43 43 43 43 43 44 42 40 41 42 40 39 38 38 38 38 38 38 38 38 38 38 38 37 36 34 33 32 35 35 37 36 37 37
35 36 31 26 31 29 33 36 37 36 34 35 37 40 42 43 43 43 43 43 42 42 43 45 46 45 45 45 45 46 46 48 47 48 48 48 48 48 48 48 48 49 49 48 47 47 46 45 44 44 43 43 42 42 41 41 41 42 42 41 42 43 41 38 38 38 37 37 37 37 37 37 37 37 37 36 35 34 33 31 31 33 34 34 36 35